History for Miami, FL

Sunday, January 13, 2013 — View Current Conditions

Jump to Data:

Date:
Airport Code:
Recently Viewed Airport Codes: KMIA
Daily Summary
  Actual Average Record
Temperature
Mean Temperature 77°F 68°F  
Max Temperature 81°F 76°F 84°F (1993)
Min Temperature 72°F 60°F 32°F (1981)
Degree Days
Heating Degree Days 0 2  
Month to date heating degree days 0 26  
Since 1 July heating degree days 16 63  
Cooling Degree Days 12 5  
Month to date cooling degree days 145 65  
Year to date cooling degree days 145 65  
Growing Degree Days 26 (Base 50)    
Moisture
Dew Point 63°F    
Average Humidity 65    
Maximum Humidity 79    
Minimum Humidity 51    
Precipitation
Precipitation 0.00 in 0.05 in 1.57 in (1948)
Month to date precipitation 0.20 0.66  
Year to date precipitation 0.20 0.66  
Snow
Snow 0.00 in in in ()
Month to date snowfall 0.0  
Since 1 July snowfall 0.0  
Snow Depth 0.00 in    
Sea Level Pressure
Sea Level Pressure 30.11 in    
Wind
Wind Speed 11 mph (ESE)    
Max Wind Speed 21 mph    
Max Gust Speed 25 mph    
Visibility 10 miles    
Events      
T = Trace of Precipitation, MM = Missing Value Source: NWS Daily Summary

Show full METARS

(help) - Comma Delimited File

Hourly Observations

Time(EST) Temperature Dew Point Humidity Sea Level Pressure Visibility Wind Direction Wind Speed Gust Speed Precipitation Events Conditions
12:53 AM 73.0°F 66.0°F 79% 30.11 in 10.0 miles East 11.5 mph - N/A   Partly Cloudy
1:53 AM 73.0°F 66.0°F 79% 30.10 in 10.0 miles East 10.4 mph - N/A   Partly Cloudy
2:53 AM 73.0°F 64.9°F 76% 30.10 in 10.0 miles East 9.2 mph - N/A   Partly Cloudy
3:53 AM 73.0°F 64.9°F 76% 30.08 in 10.0 miles ESE 9.2 mph - N/A   Partly Cloudy
4:53 AM 73.0°F 64.9°F 76% 30.09 in 10.0 miles East 10.4 mph - N/A   Scattered Clouds
5:53 AM 73.0°F 64.9°F 76% 30.10 in 10.0 miles East 9.2 mph - N/A   Partly Cloudy
6:53 AM 73.0°F 64.9°F 76% 30.09 in 10.0 miles East 10.4 mph - N/A   Scattered Clouds
7:53 AM 73.9°F 66.0°F 76% 30.09 in 10.0 miles East 11.5 mph - N/A   Scattered Clouds
8:53 AM 75.9°F 64.9°F 69% 30.10 in 10.0 miles ESE 11.5 mph - N/A   Scattered Clouds
9:53 AM 79.0°F 64.9°F 62% 30.12 in 10.0 miles ESE 18.4 mph 23.0 mph N/A   Scattered Clouds
10:53 AM 79.0°F 64.9°F 62% 30.11 in 10.0 miles ESE 19.6 mph 25.3 mph N/A   Mostly Cloudy
11:53 AM 79.0°F 63.0°F 58% 30.13 in 10.0 miles ESE 13.8 mph 20.7 mph N/A   Mostly Cloudy
12:53 PM 80.1°F 63.0°F 56% 30.12 in 10.0 miles SSE 9.2 mph 20.7 mph N/A   Mostly Cloudy
1:53 PM 79.0°F 60.1°F 52% 30.11 in 10.0 miles Variable 6.9 mph - N/A   Scattered Clouds
2:53 PM 80.1°F 61.0°F 52% 30.10 in 10.0 miles SE 10.4 mph 17.3 mph N/A   Scattered Clouds
3:53 PM 78.1°F 61.0°F 56% 30.12 in 10.0 miles ESE 10.4 mph - N/A   Mostly Cloudy
4:53 PM 77.0°F 62.1°F 60% 30.13 in 10.0 miles ESE 13.8 mph - N/A   Mostly Cloudy
5:53 PM 75.0°F 61.0°F 62% 30.14 in 10.0 miles ESE 10.4 mph - N/A   Mostly Cloudy
6:53 PM 73.9°F 62.1°F 66% 30.14 in 10.0 miles ESE 9.2 mph - N/A   Mostly Cloudy
7:53 PM 73.9°F 62.1°F 66% 30.14 in 10.0 miles ESE 10.4 mph - N/A   Mostly Cloudy
8:53 PM 73.9°F 63.0°F 68% 30.12 in 10.0 miles East 6.9 mph - N/A   Mostly Cloudy
9:53 PM 73.9°F 62.1°F 66% 30.11 in 10.0 miles East 13.8 mph - N/A   Mostly Cloudy
10:53 PM 75.0°F 62.1°F 64% 30.13 in 10.0 miles East 10.4 mph - N/A   Mostly Cloudy
11:53 PM 73.9°F 62.1°F 66% 30.12 in 10.0 miles ESE 13.8 mph - N/A   Mostly Cloudy